TimeEST,TemperatureF,Dew PointF,Humidity,Sea Level PressureIn,VisibilityMPH,Wind Direction,Wind SpeedMPH,Gust SpeedMPH,PrecipitationIn,Events,Conditions,WindDirDegrees,DateUTC
12:52 AM,24.1,3.9,42,30.44,10.0,ESE,6.9,-,N/A,,Overcast,110,2013-02-08 05:52:00
1:52 AM,24.1,6.1,46,30.42,10.0,East,4.6,-,N/A,,Overcast,100,2013-02-08 06:52:00
2:30 AM,24.8,8.6,50,30.37,10.0,East,3.5,-,N/A,,Overcast,80,2013-02-08 07:30:00
2:52 AM,23.0,7.0,50,30.39,10.0,NE,4.6,-,N/A,,Overcast,50,2013-02-08 07:52:00
3:52 AM,23.0,8.1,53,30.36,10.0,East,3.5,-,N/A,,Overcast,80,2013-02-08 08:52:00
4:52 AM,23.0,10.0,58,30.35,10.0,Calm,Calm,-,N/A,,Overcast,0,2013-02-08 09:52:00
5:52 AM,24.1,14.0,65,30.33,10.0,Calm,Calm,-,N/A,,Overcast,0,2013-02-08 10:52:00
6:52 AM,24.1,17.1,75,30.32,10.0,East,3.5,-,N/A,,Overcast,80,2013-02-08 11:52:00
7:52 AM,25.0,19.0,78,30.30,10.0,East,4.6,-,0.00,,Overcast,100,2013-02-08 12:52:00
8:52 AM,25.0,19.0,78,30.27,10.0,NE,6.9,-,N/A,,Overcast,50,2013-02-08 13:52:00
9:00 AM,24.8,19.4,80,30.23,10.0,Variable,6.9,-,N/A,,Overcast,0,2013-02-08 14:00:00
9:52 AM,26.1,19.9,78,30.25,10.0,East,4.6,-,N/A,,Overcast,80,2013-02-08 14:52:00
10:41 AM,26.6,21.2,80,30.21,1.8,Variable,4.6,-,0.00,Snow,Light Snow,0,2013-02-08 15:41:00
10:52 AM,26.1,21.0,81,30.22,1.5,ENE,3.5,-,0.00,Snow,Light Snow,60,2013-02-08 15:52:00
10:58 AM,26.6,21.2,80,30.19,1.2,NNE,3.5,-,0.00,Snow,Light Snow,30,2013-02-08 15:58:00
11:07 AM,26.6,21.2,80,30.18,1.8,ENE,3.5,-,0.00,Snow,Light Snow,60,2013-02-08 16:07:00
11:12 AM,26.6,21.2,80,30.18,3.0,NE,10.4,-,0.00,Snow,Light Snow,50,2013-02-08 16:12:00
11:52 AM,27.0,21.0,78,30.17,7.0,NNE,4.6,-,0.00,Snow,Light Snow,30,2013-02-08 16:52:00
12:52 PM,27.0,21.0,78,30.12,5.0,NE,12.7,19.6,0.00,,Haze,50,2013-02-08 17:52:00
1:08 PM,26.6,21.2,80,30.08,2.0,ENE,6.9,-,0.00,Snow,Light Snow,60,2013-02-08 18:08:00
1:14 PM,26.6,21.2,80,30.07,1.2,NE,10.4,17.3,0.00,Snow,Light Snow,40,2013-02-08 18:14:00
1:24 PM,26.6,21.2,80,30.07,1.0,NE,8.1,-,0.00,Snow,Light Snow,50,2013-02-08 18:24:00
1:39 PM,26.6,21.2,80,30.05,1.2,NE,11.5,-,0.00,Snow,Light Snow,40,2013-02-08 18:39:00
1:52 PM,26.1,21.0,81,30.07,1.0,NE,13.8,19.6,0.01,Snow,Light Snow,40,2013-02-08 18:52:00
2:03 PM,24.8,21.2,86,30.04,1.2,NE,10.4,19.6,0.00,Snow,Light Snow,50,2013-02-08 19:03:00
2:21 PM,24.8,19.4,80,30.03,1.5,NE,10.4,-,0.00,Snow,Light Snow,50,2013-02-08 19:21:00
2:52 PM,24.1,19.0,81,30.04,1.5,NE,10.4,19.6,0.00,Snow,Light Snow,50,2013-02-08 19:52:00
2:59 PM,24.8,19.4,80,30.01,1.2,NE,10.4,20.7,0.00,Snow,Light Snow,50,2013-02-08 19:59:00
3:08 PM,24.8,19.4,80,30.00,1.0,NNE,12.7,20.7,0.00,Snow,Light Snow,30,2013-02-08 20:08:00
3:30 PM,23.0,19.4,86,29.98,0.8,NE,12.7,23.0,0.00,Snow,Light Snow,40,2013-02-08 20:30:00
3:52 PM,23.0,19.0,85,29.99,0.5,NE,12.7,21.9,0.01,Fog-Snow,Snow,40,2013-02-08 20:52:00
4:02 PM,23.0,19.4,86,29.96,0.5,NE,10.4,21.9,0.00,Fog-Snow,Snow,40,2013-02-08 21:02:00
4:52 PM,21.9,18.0,85,29.96,0.5,NE,15.0,23.0,0.02,Fog-Snow,Snow,40,2013-02-08 21:52:00
5:03 PM,21.2,17.6,86,29.92,0.8,NNE,10.4,23.0,0.00,Snow,Light Snow,20,2013-02-08 22:03:00
5:10 PM,21.2,17.6,86,29.91,1.2,NNE,12.7,23.0,0.00,Snow,Light Snow,20,2013-02-08 22:10:00
5:50 PM,21.2,17.6,86,29.90,1.0,NNE,13.8,25.3,0.01,Snow,Light Snow,20,2013-02-08 22:50:00
5:52 PM,21.9,18.0,85,29.93,0.8,NNE,13.8,25.3,0.01,Snow,Light Snow,20,2013-02-08 22:52:00
6:00 PM,21.2,17.6,86,29.89,0.8,North,10.4,21.9,0.00,Snow,Light Snow,10,2013-02-08 23:00:00
6:12 PM,21.2,17.6,86,29.89,1.0,NNE,13.8,21.9,0.01,Snow,Light Snow,30,2013-02-08 23:12:00
6:23 PM,21.2,17.6,86,29.88,0.8,North,8.1,18.4,0.01,Snow,Light Snow,360,2013-02-08 23:23:00
6:45 PM,21.2,17.6,86,29.88,0.5,NNE,16.1,20.7,0.03,Fog-Snow,Snow,20,2013-02-08 23:45:00
6:52 PM,19.9,17.1,89,29.90,0.5,North,15.0,20.7,0.03,Fog-Snow,Snow,10,2013-02-08 23:52:00
7:36 PM,19.4,15.8,86,29.84,0.8,NNE,16.1,23.0,0.02,Snow,Light Snow,20,2013-02-09 00:36:00
7:52 PM,19.0,15.1,85,29.86,0.5,NNE,16.1,27.6,0.03,Fog-Snow,Snow,20,2013-02-09 00:52:00
8:52 PM,19.0,15.1,85,29.82,0.5,NNE,19.6,31.1,0.01,Fog-Snow,Snow,20,2013-02-09 01:52:00
9:52 PM,18.0,14.0,84,29.78,0.5,NNE,19.6,31.1,0.02,Fog-Snow,Snow,20,2013-02-09 02:52:00
10:18 PM,17.6,14.0,86,29.73,0.5,North,18.4,29.9,0.01,Fog-Snow,Snow,10,2013-02-09 03:18:00
10:52 PM,17.1,14.0,88,29.73,0.2,North,19.6,31.1,0.02,Fog,Light Freezing Fog,10,2013-02-09 03:52:00
11:52 PM,17.1,14.0,88,29.75,0.2,North,16.1,26.5,0.08,Fog,Light Freezing Fog,360,2013-02-09 04:52:00